Temperature
31 31 31 31 32 32 32 32 31 31 30 30 30 29 28 28 28 27 26 26 25 24 23 23 22 22 21 21 20 20 19 19 18 18 18 17 17 17 17 17 16 16 16 16
30 31 31 31 32 32 32 33 32 32 30 30 29 28 28 27 27 26 26 25 25 24 23 22 22 21 20 20 20 20 19 19 18 18 18 17 17 17 17 16 16 16 16 15
29 31 31 30 31 32 32 32 32 31 30 30 29 28 27 27 27 26 26 25 24 23 23 22 21 21 20 20 19 19 19 18 18 18 18 17 17 17 16 16 16 16 15 15
29 29 28 30 32 32 32 32 32 31 30 30 29 28 28 27 26 26 25 24 23 23 22 22 21 21 20 19 19 19 18 18 18 17 17 17 17 16 16 16 16 16 15 15
28 28 28 30 31 32 31 30 31 30 30 29 29 28 27 26 25 25 25 24 23 23 22 22 21 20 19 19 19 18 18 18 17 17 17 17 17 16 16 16 16 15 15 15
28 27 27 29 31 31 31 29 29 29 28 28 28 27 26 25 24 24 24 23 23 22 22 21 20 20 19 18 18 18 18 17 17 17 17 17 16 16 16 16 16 15 15 15
28 27 28 29 30 30 28 27 28 27 27 27 27 26 25 24 24 23 23 23 22 22 21 21 20 19 19 18 18 18 17 17 17 17 17 17 16 16 16 16 15 15 15 14
27 27 27 29 29 27 26 27 26 26 26 26 25 25 24 23 23 22 22 22 21 21 20 20 19 19 19 18 18 17 17 17 17 17 16 16 16 16 16 15 15 15 15 15
27 26 26 27 26 26 26 26 25 25 25 25 24 24 23 22 22 22 21 21 21 20 20 19 19 19 18 18 17 17 17 17 16 16 16 16 16 16 16 15 15 15 15 15
26 26 26 25 25 25 25 25 25 25 24 24 24 23 22 22 21 21 21 21 20 20 19 19 19 18 18 17 17 17 16 16 16 16 16 16 16 16 15 15 15 15 15 14
25 25 25 25 24 24 24 24 24 24 24 23 23 22 21 21 20 20 20 19 19 19 19 18 18 18 17 17 17 16 16 16 16 16 16 16 15 15 15 15 15 15 15 14
24 24 24 23 23 23 23 23 23 23 23 22 22 21 21 20 20 20 19 19 19 18 18 18 18 17 17 17 16 16 16 16 16 16 16 15 15 15 15 15 15 15 14 14
23 23 23 22 22 22 23 23 22 22 22 22 21 21 20 20 19 19 19 18 18 18 18 17 17 17 17 16 16 16 15 15 16 15 15 15 15 15 15 15 15 14 14 14
21 21 22 21 22 21 22 22 22 22 21 21 20 20 20 19 19 18 18 18 18 17 17 17 17 17 16 16 16 15 15 15 15 15 15 15 15 15 15 15 15 14 14 14
21 21 21 21 21 21 21 21 21 21 20 20 20 19 19 18 18 18 17 17 17 17 17 16 16 16 16 16 15 15 15 15 15 15 15 15 15 15 15 15 14 14 14 14
20 20 20 20 20 20 21 20 20 20 20 19 19 19 18 18 17 17 17 16 16 16 16 16 16 16 16 15 15 15 15 15 15 15 15 15 15 15 15 15 14 14 14 14
19 20 20 20 20 20 20 19 19 19 19 19 18 18 17 17 17 16 16 16 16 16 15 15 15 15 15 15 15 15 15 15 15 15 15 15 14 14 14 14 14 13 13 13
19 19 19 19 19 19 19 18 18 18 18 18 17 17 17 17 16 16 16 16 15 15 15 15 15 15 15 15 14 14 14 15 15 14 14 14 14 14 14 14 13 13 13 13
19 18 18 18 18 18 18 18 18 18 17 17 17 17 16 16 16 16 15 15 15 15 15 15 15 15 14 14 14 14 14 14 14 14 14 14 14 13 13 13 13 13 13 12
18 18 18 17 17 17 17 17 17 17 16 16 16 16 16 16 15 15 15 15 15 15 15 15 14 14 14 14 14 14 14 14 14 14 14 13 13 13 13 13 13 13 12 12
17 17 17 17 16 16 16 16 16 16 16 16 16 15 15 15 15 15 15 15 15 14 14 14 14 14 14 14 14 14 14 14 14 14 13 13 13 13 13 13 13 12 12 12
16 16 16 16 16 16 16 15 16 16 15 15 15 15 15 14 15 14 14 14 14 14 14 14 14 14 14 14 13 13 14 14 13 13 13 13 13 13 12 12 12 12 12 11
15 15 15 15 15 15 15 15 15 15 15 15 15 14 14 14 14 14 14 14 14 14 14 14 14 14 13 13 13 13 13 13 13 13 13 12 12 12 12 12 11 11 11 11
14 14 15 15 14 14 14 14 14 14 14 14 14 14 14 14 14 14 14 14 14 14 13 13 13 13 13 13 13 13 13 13 12 12 12 12 12 12 11 11 11 11 11 10
14 14 14 14 14 14 14 14 14 14 14 14 14 14 14 14 14 14 14 14 13 13 13 13 13 13 13 12 12 12 12 12 12 12 12 12 11 11 11 11 10 10 10 10
14 14 14 14 14 14 14 14 14 14 14 14 14 14 14 14 13 13 13 13 13 13 13 12 12 12 12 12 12 12 12 12 12 12 11 11 11 11 10 10 10 10 10 9
14 14 14 14 14 14 14 14 14 14 14 14 14 13 13 13 13 13 13 13 13 13 12 12 12 12 12 12 12 12 12 12 11 11 11 11 11 10 10 10 10 9 9 9
Wind_Speed
13 13 13 13 13 13 11 10 9 7 4 7 6 6 7 8 8 7 8 8 8 8 8 7 7 6 6 5 5 5 6 6 5 4 3 3 2 2 1 1 1 1 1 1
13 14 15 14 13 13 13 12 10 6 4 3 7 7 6 7 8 8 7 8 8 8 8 7 7 7 6 5 5 5 5 4 4 4 3 3 2 2 1 1 1 1 1 2
13 13 13 15 13 12 11 12 10 6 4 5 6 9 8 7 7 7 6 5 7 8 7 7 7 7 7 5 5 5 4 4 4 3 3 3 3 2 2 2 1 1 2 1
12 12 15 11 8 10 9 8 5 0 3 5 6 8 8 7 6 6 7 7 7 7 7 7 8 8 6 5 5 5 5 4 3 4 3 3 3 2 2 1 1 1 2 1
10 13 12 11 8 8 7 5 3 3 3 3 6 7 7 6 5 5 6 6 6 7 7 7 7 8 7 5 5 5 4 4 3 3 3 3 2 2 2 1 2 2 1 1
11 12 12 8 4 5 5 3 5 5 4 2 3 3 4 6 5 5 6 6 5 5 6 7 7 7 7 6 5 4 4 3 3 3 3 3 3 2 2 2 2 2 1 1
12 12 9 5 5 4 4 1 6 5 4 2 3 2 4 6 6 5 5 5 5 5 5 5 6 7 6 5 5 4 4 3 2 2 3 3 2 2 2 2 2 3 2 2
10 11 7 6 4 2 4 5 5 5 5 4 6 7 7 7 7 5 5 5 5 5 5 5 5 6 5 4 4 4 4 3 3 2 2 2 2 2 2 2 2 3 2 3
3 2 2 5 6 5 4 4 4 4 4 4 5 6 7 6 6 5 4 5 4 5 5 4 4 4 5 4 4 4 4 3 2 2 1 1 1 1 1 2 2 2 2 2
2 1 2 3 4 4 4 3 4 3 3 3 4 5 6 5 5 4 4 4 4 4 4 4 4 4 4 4 3 4 3 3 3 3 3 2 1 2 1 1 1 2 1 2
3 0 1 3 3 3 3 4 4 3 4 4 4 4 5 4 4 3 2 3 4 4 4 4 4 4 4 4 4 3 3 3 4 3 3 3 3 2 2 2 2 2 1 1
2 2 0 2 4 4 3 2 3 2 2 3 3 3 4 3 3 3 3 2 3 4 4 5 5 4 3 4 4 4 4 4 3 3 3 3 3 2 0 1 3 2 2 1
3 4 4 3 2 4 4 2 2 1 2 3 4 3 2 3 3 2 2 3 3 3 4 5 5 5 4 5 4 4 4 3 3 3 3 3 3 3 3 3 2 4 4 4
4 4 3 3 2 3 4 3 1 1 2 2 3 2 2 2 2 2 1 2 2 3 3 4 4 4 4 4 3 3 4 3 3 3 3 3 3 3 3 3 3 3 5 7
3 3 3 2 3 3 3 2 2 1 1 1 2 2 2 1 1 1 1 1 2 2 3 3 3 3 3 4 4 4 3 2 2 3 3 3 3 3 3 2 2 2 2 3
3 4 4 4 4 4 3 2 2 3 1 1 1 1 1 1 1 1 1 1 1 2 2 2 2 2 3 3 3 3 3 4 3 4 5 4 3 3 2 2 2 1 1 1
5 5 4 4 4 4 2 2 3 3 1 0 0 1 0 1 1 1 1 2 1 1 1 2 2 2 2 3 3 3 3 3 4 4 3 3 2 2 2 2 2 2 1 2
4 4 4 4 3 3 3 3 3 4 3 1 1 1 1 2 1 1 1 1 1 2 2 2 2 2 3 3 2 3 3 3 3 3 3 2 2 3 3 3 2 2 1 2
3 3 3 3 3 3 4 4 3 2 1 1 2 2 2 1 1 2 1 2 2 3 2 2 3 3 3 2 1 2 4 3 3 2 2 1 3 4 3 2 2 2 1 0
2 2 2 2 3 3 3 3 2 2 2 2 2 2 2 2 2 2 2 2 3 2 1 1 2 4 4 2 3 4 4 4 3 2 2 2 3 3 2 2 2 2 0 0
2 2 2 2 3 3 3 3 2 2 2 3 2 2 2 2 2 2 2 3 1 1 1 2 3 3 2 2 4 5 4 3 3 2 2 2 2 2 2 2 1 1 1 1
3 3 3 2 3 4 3 4 3 3 3 3 3 2 2 3 3 3 3 2 2 1 1 2 2 1 0 1 4 4 3 2 2 1 1 1 1 1 2 2 2 2 2 1
3 3 3 2 3 4 5 4 3 2 3 3 3 3 4 3 3 3 3 2 2 2 2 2 0 2 1 2 3 3 3 2 2 2 1 0 0 0 1 1 2 2 2 1
3 4 3 3 3 4 4 4 3 3 3 3 3 3 3 3 3 2 2 2 3 3 1 1 3 2 2 3 3 3 2 2 2 1 1 0 0 1 0 1 1 2 2 1
3 4 3 3 4 3 3 3 3 3 3 3 3 3 3 2 2 2 2 1 3 4 2 3 5 4 3 3 3 2 1 0 0 1 1 1 1 1 0 0 1 2 2 2
3 3 2 3 2 2 2 2 2 2 2 2 2 1 1 2 2 2 1 2 2 2 2 1 2 3 3 3 2 1 1 1 1 0 0 1 1 1 2 1 1 1 2 2
3 3 2 2 2 2 2 2 2 2 2 2 2 2 1 1 1 1 1 1 1 1 2 2 2 3 3 2 2 1 1 1 1 1 0 0 1 1 2 2 2 2 2 2
Wind_Direction
253 261 264 261 262 265 266 271 275 274 248 190 169 149 150 152 149 149 155 154 146 141 136 132 132 133 138 144 141 140 145 156 156 166 167 159 169 165 182 220 213 193 242 277
258 256 258 266 269 269 265 263 262 253 263 117 124 132 145 147 158 160 159 152 145 138 137 140 143 144 143 146 141 133 139 150 150 157 165 172 171 168 201 230 263 251 248 268
268 266 260 257 259 265 268 271 266 258 220 150 144 147 151 155 158 142 139 143 147 142 146 151 151 147 154 152 150 146 150 156 153 159 167 173 182 171 205 222 233 264 278 279
265 268 262 260 267 269 272 289 305 320 111 139 140 133 131 135 139 143 146 154 147 148 158 164 158 151 151 159 156 156 158 165 172 174 179 175 178 183 205 217 229 251 261 253
261 263 260 265 269 269 264 273 346 63 77 98 110 119 114 113 128 144 143 140 143 157 163 151 149 147 149 164 159 160 166 178 189 188 181 181 189 199 213 222 244 253 236 214
250 260 262 269 286 318 289 242 41 65 62 93 118 151 127 112 108 114 123 130 138 146 138 135 140 146 151 160 157 164 168 174 177 181 180 191 204 217 218 220 229 234 203 196
249 255 257 299 310 295 263 77 45 61 59 51 77 78 114 112 104 97 101 115 120 122 123 131 138 139 147 155 162 159 154 154 165 172 188 189 189 204 221 227 213 221 206 199
251 257 260 349 345 24 74 73 59 59 55 51 77 96 101 104 105 106 110 113 126 127 124 126 132 141 150 155 149 142 148 158 170 178 208 180 173 205 217 231 229 226 212 210
253 260 29 29 48 54 56 68 69 59 61 79 100 108 108 107 108 116 125 129 130 127 125 129 134 148 157 148 143 147 153 160 170 176 194 177 202 217 222 214 235 224 216 232
310 116 73 60 55 57 58 61 59 49 66 92 97 106 110 113 115 116 119 131 128 134 144 141 138 142 141 139 148 158 167 174 186 192 188 174 204 206 219 222 246 255 246 253
258 289 48 50 36 38 64 64 55 46 59 71 81 89 102 103 107 119 125 134 140 145 153 148 141 137 146 153 156 170 187 197 212 209 190 194 202 214 198 176 194 229 269 291
279 74 356 57 25 3 23 65 69 55 69 78 89 106 110 113 115 129 143 141 153 160 163 157 151 154 161 168 175 191 210 211 218 219 206 207 201 197 110 197 181 181 175 192
21 25 37 25 12 349 341 12 62 65 73 86 87 98 113 119 135 142 144 155 163 168 171 167 166 168 179 182 184 199 224 228 226 230 229 230 216 210 208 213 208 216 210 203
21 11 10 355 346 339 323 324 322 88 69 87 101 114 114 113 125 129 148 175 170 173 182 179 180 180 183 177 181 208 231 238 238 238 244 241 239 243 230 219 215 221 212 207
348 329 318 319 310 293 295 305 309 236 154 108 111 110 102 116 134 141 175 187 171 180 175 176 185 185 183 177 188 212 221 242 253 260 250 245 248 248 245 236 240 225 177 185
295 289 281 273 275 282 280 269 267 270 175 119 108 106 97 91 104 129 194 158 186 200 162 157 207 201 187 191 205 215 203 212 230 256 258 250 251 255 251 248 247 232 221 169
258 265 271 271 275 281 285 288 291 295 296 283 69 44 123 122 128 177 218 196 194 193 195 201 213 197 213 214 219 228 226 211 223 253 270 286 284 279 272 263 257 255 228 167
256 265 276 282 284 292 280 256 254 255 259 259 247 210 225 210 213 244 251 216 206 220 227 210 194 214 219 216 237 257 250 229 224 239 255 266 285 285 269 263 259 258 235 189
241 252 258 267 282 286 283 275 263 260 256 253 253 251 253 237 230 246 235 214 231 234 233 204 189 224 230 214 227 253 256 246 226 220 232 234 256 263 259 257 265 270 275 259
243 250 268 278 278 273 280 283 257 226 227 246 251 260 268 270 255 243 221 237 245 265 260 207 212 244 241 213 231 245 246 247 241 214 214 257 274 275 273 269 270 269 249 280
263 264 271 282 294 290 287 289 273 250 245 249 238 238 243 258 245 234 242 248 234 119 248 204 227 245 244 229 242 256 251 252 252 221 208 247 284 299 303 310 313 305 278 268
305 295 293 297 295 300 299 289 276 267 265 260 251 245 247 245 232 224 230 239 230 162 223 252 255 277 90 259 257 264 263 264 262 255 252 275 301 311 317 331 335 329 315 310
316 300 284 275 279 285 286 281 273 270 271 268 260 253 248 250 251 244 242 233 226 172 216 268 147 116 141 260 264 267 266 261 258 256 254 240 236 171 327 322 319 316 307 336
301 292 281 270 273 278 281 278 271 262 260 265 256 248 249 246 243 235 226 184 175 168 227 160 154 163 219 244 255 256 264 260 249 265 276 245 198 211 197 305 315 333 340 357
287 283 276 275 266 267 262 262 252 232 235 239 238 233 238 237 235 236 245 215 168 172 204 184 180 199 221 255 254 244 241 248 340 312 325 354 317 279 58 11 350 342 348 360
265 264 261 259 261 272 267 276 275 260 250 252 252 240 234 232 238 229 213 200 194 188 204 210 192 205 238 253 245 235 232 192 174 244 16 45 20 45 75 57 36 7 356 4
246 247 244 254 262 255 251 259 264 260 257 261 282 277 266 268 262 251 256 238 217 200 201 211 209 212 230 243 238 221 229 223 209 200 175 188 89 73 68 56 38 17 9 18
Height
1457 1453 1453 1453 1453 1451 1454 1456 1464 1463 1462 1462 1461 1466 1470 1474 1476 1479 1483 1487 1489 1492 1495 1498 1501 1503 1505 1507 1509 1510 1511 1512 1513 1514 1514 1515 1515 1515 1515 1515 1515 1514 1514 1513
1460 1453 1452 1453 1451 1450 1450 1449 1451 1455 1460 1457 1460 1465 1469 1473 1476 1479 1482 1485 1488 1491 1494 1497 1499 1501 1504 1506 1507 1509 1510 1511 1512 1512 1513 1513 1514 1514 1514 1513 1513 1513 1512 1512
1465 1455 1455 1463 1452 1450 1449 1446 1448 1455 1457 1456 1461 1465 1469 1473 1475 1478 1482 1485 1487 1490 1493 1496 1497 1500 1502 1504 1506 1507 1508 1510 1510 1511 1511 1512 1512 1512 1512 1512 1511 1511 1511 1511
1463 1465 1479 1456 1441 1442 1445 1446 1444 1448 1452 1455 1461 1465 1469 1473 1476 1478 1481 1484 1487 1490 1493 1494 1496 1499 1502 1504 1505 1506 1506 1507 1508 1509 1510 1510 1510 1510 1510 1510 1510 1509 1509 1508
1465 1469 1465 1450 1443 1443 1448 1452 1447 1450 1454 1458 1461 1466 1470 1474 1476 1479 1481 1484 1486 1489 1491 1493 1495 1497 1500 1502 1504 1505 1505 1506 1506 1507 1508 1508 1508 1508 1508 1508 1508 1508 1507 1507
1463 1472 1476 1456 1443 1443 1448 1458 1453 1455 1458 1461 1462 1468 1473 1475 1477 1479 1481 1483 1486 1488 1490 1491 1493 1495 1497 1499 1501 1502 1503 1503 1504 1505 1505 1506 1506 1506 1506 1506 1506 1506 1506 1505
1462 1466 1459 1450 1445 1447 1464 1466 1459 1459 1462 1464 1466 1470 1473 1475 1478 1481 1482 1484 1486 1488 1489 1491 1492 1494 1496 1498 1499 1500 1501 1502 1503 1503 1504 1504 1504 1504 1504 1504 1504 1504 1503 1503
1459 1467 1467 1451 1449 1456 1462 1460 1461 1463 1465 1467 1468 1471 1473 1476 1478 1481 1483 1484 1486 1487 1488 1490 1492 1493 1495 1496 1498 1499 1500 1500 1501 1501 1502 1503 1502 1502 1502 1502 1502 1502 1501 1501
1456 1462 1458 1455 1457 1460 1461 1462 1464 1466 1467 1469 1471 1472 1474 1477 1479 1481 1483 1485 1486 1487 1488 1490 1491 1492 1494 1495 1496 1497 1498 1499 1499 1500 1500 1500 1500 1500 1501 1500 1500 1500 1500 1499
1454 1455 1457 1459 1461 1462 1463 1464 1465 1468 1469 1470 1472 1474 1475 1478 1480 1482 1483 1485 1485 1486 1488 1489 1490 1492 1493 1494 1495 1496 1496 1497 1497 1498 1498 1498 1499 1499 1499 1499 1499 1498 1498 1497
1457 1458 1459 1461 1463 1463 1464 1466 1468 1469 1470 1472 1474 1475 1476 1478 1480 1481 1483 1484 1485 1486 1487 1488 1489 1490 1492 1493 1493 1494 1495 1496 1496 1496 1496 1496 1497 1497 1496 1496 1496 1496 1496 1495
1459 1460 1462 1464 1465 1465 1466 1467 1469 1470 1471 1473 1475 1476 1477 1478 1480 1481 1482 1483 1484 1485 1486 1487 1488 1489 1490 1491 1491 1492 1493 1494 1494 1495 1495 1494 1494 1495 1494 1494 1494 1494 1494 1494
1461 1462 1463 1466 1466 1467 1467 1468 1470 1471 1472 1474 1475 1477 1477 1478 1480 1481 1482 1482 1483 1484 1485 1485 1486 1487 1488 1488 1490 1491 1491 1492 1492 1493 1493 1493 1492 1492 1492 1492 1491 1491 1491 1491
1463 1464 1465 1467 1467 1468 1469 1469 1471 1472 1473 1474 1475 1477 1477 1478 1479 1480 1481 1481 1482 1482 1483 1484 1484 1485 1485 1486 1487 1488 1489 1490 1490 1490 1490 1490 1490 1490 1489 1489 1488 1488 1488 1488
1465 1466 1466 1467 1468 1469 1469 1470 1471 1472 1473 1474 1475 1476 1477 1477 1478 1479 1479 1479 1480 1480 1481 1482 1482 1482 1483 1484 1485 1485 1487 1488 1488 1488 1488 1488 1488 1487 1487 1486 1486 1486 1486 1485
1465 1466 1467 1467 1468 1469 1469 1469 1471 1472 1473 1474 1475 1475 1476 1476 1477 1477 1478 1478 1478 1478 1478 1479 1480 1480 1481 1482 1482 1482 1483 1484 1485 1485 1485 1485 1485 1485 1484 1484 1484 1483 1483 1482
1465 1466 1466 1467 1467 1468 1469 1470 1471 1471 1472 1473 1474 1474 1475 1475 1476 1476 1477 1477 1477 1478 1478 1478 1478 1478 1479 1479 1480 1480 1481 1481 1482 1482 1482 1482 1482 1482 1482 1482 1482 1481 1480 1479
1464 1465 1466 1466 1467 1467 1468 1469 1470 1471 1471 1472 1473 1473 1474 1474 1474 1475 1475 1476 1476 1476 1476 1476 1476 1476 1477 1477 1478 1478 1479 1479 1479 1479 1479 1479 1479 1479 1479 1479 1479 1479 1478 1477
1462 1463 1464 1465 1466 1467 1467 1468 1468 1469 1470 1471 1471 1472 1472 1473 1473 1473 1474 1474 1474 1474 1474 1474 1474 1474 1475 1475 1475 1476 1476 1476 1476 1476 1476 1476 1475 1476 1476 1476 1476 1476 1475 1475
1462 1462 1463 1464 1465 1465 1466 1467 1467 1467 1468 1469 1469 1470 1470 1471 1471 1471 1472 1472 1472 1472 1472 1471 1471 1471 1472 1472 1472 1473 1473 1474 1474 1473 1473 1474 1473 1472 1473 1474 1474 1473 1473 1472
1461 1462 1463 1463 1464 1464 1465 1465 1465 1466 1466 1467 1467 1468 1468 1468 1469 1469 1469 1470 1470 1470 1470 1469 1469 1469 1469 1469 1469 1470 1471 1471 1471 1471 1471 1471 1471 1471 1471 1471 1471 1471 1470 1470
1460 1461 1462 1462 1463 1463 1463 1463 1463 1463 1464 1465 1465 1465 1466 1466 1467 1467 1467 1468 1468 1467 1467 1467 1467 1467 1467 1467 1467 1467 1468 1468 1468 1468 1468 1469 1469 1469 1469 1469 1469 1469 1468 1468
1460 1460 1460 1461 1462 1462 1462 1462 1462 1462 1462 1462 1462 1462 1463 1463 1464 1464 1465 1465 1465 1464 1464 1465 1465 1464 1464 1464 1464 1465 1465 1465 1465 1466 1466 1466 1466 1466 1466 1466 1466 1466 1466 1465
1459 1459 1459 1459 1460 1460 1460 1460 1459 1459 1459 1459 1460 1460 1461 1461 1461 1462 1462 1462 1462 1462 1462 1462 1461 1461 1462 1462 1462 1462 1462 1463 1463 1463 1463 1463 1464 1463 1464 1464 1464 1464 1464 1463
1458 1458 1458 1458 1458 1458 1458 1458 1457 1457 1457 1458 1458 1458 1458 1459 1459 1459 1459 1459 1459 1459 1459 1459 1459 1459 1459 1459 1459 1459 1460 1460 1460 1461 1461 1461 1461 1461 1461 1462 1462 1462 1461 1461
1457 1456 1456 1456 1456 1456 1456 1456 1456 1455 1455 1455 1456 1456 1456 1456 1457 1457 1457 1457 1457 1457 1457 1456 1456 1456 1456 1457 1457 1457 1458 1458 1458 1459 1459 1459 1459 1459 1459 1459 1460 1460 1459 1459
1455 1455 1455 1455 1455 1455 1455 1454 1454 1454 1453 1453 1454 1454 1454 1454 1455 1455 1455 1455 1455 1455 1455 1454 1454 1454 1455 1455 1455 1455 1456 1456 1457 1457 1457 1458 1458 1458 1457 1457 1457 1457 1457 1457